Location: Pcim
(49.7500°N, 19.9670°E)
Time: 21:00:13
(UTC+02:00)

MOZHAYETS 4 - Pass Details

Date: 28 April 2024
Orbit: 652 x 670 km, 98.3° (Epoch: 20 May)

Event Time Altitude Azimuth Distance (km) Brightness Sun altitude
Rises 02:51:34 0° 135° (SE) 3,011 11.0 -19.5°
Reaches altitude 10° 02:53:59 10° 125° (SE) 2,101 10.3 -19.3°
Maximum altitude 02:57:59 30° 64° (ENE) 1,194 9.6 -18.9°
Drops below altitude 10° 03:02:00 10° 4° (N) 2,111 11.1 -18.5°
Sets 03:04:26 0° 354° (N) 3,027 11.8 -18.3°
